Location: Newark
(35.6799°N, 139.7636°E)
Time: 23:48:49
(UTC+00:00)

Courier 1B Rocket - Pass Details

Date: 17 December 2019
Orbit: 920 x 1202 km, 28.2° (Epoch: 20 January)

Event Time Altitude Azimuth Distance (km) Brightness Sun altitude
Exits shadow 17:20:23 11° 105° (ESE) 2,891 7.8 -52.7°
Drops below altitude 10° 17:20:44 10° 104° (ESE) 2,984 7.9 -52.6°
Sets 17:23:48 0° 93° (E) 3,898 8.7 -52.0°
